Location: Newark
(33.6333°S, 78.8500°W)
Time: 09:28:46
(UTC+00:00)

SR - Visible Passes

Search period start: 18 September 2019 00:00
Search period end: 28 September 2019 00:00
Orbit: 576 x 880 km, 66.7° (Epoch: 17 September)

Date Brightness Start Highest point End Pass type
(mag) Time Alt. Az. Time Alt. Az. Time Alt. Az.
18 Sep ? 00:27:58 10° W 00:30:50 14° SW 00:33:37 10° SSW visible
18 Sep ? 23:36:10 10° WNW 23:40:52 28° WSW 23:45:19 10° S visible
20 Sep ? 23:40:51 10° W 23:43:54 15° SW 23:46:52 10° SSW visible
